OK1OBR-13 Weather Reports


time (UTC)temp
F
wind
direction
speed
knots
gust
knots
rain 1hr
in
rain 24hr
in
rain mn
in
humidity
%
barometer
mb
20260502214801 59 165 1.7 2.6 0.00 0.00 0.00 39 940.9
20260502214701 59 169 1.7 2.6 0.00 0.00 0.00 39 941.0
20260502214601 59 155 2.6 2.6 0.00 0.00 0.00 39 941.1
20260502214501 59 155 1.7 2.6 0.00 0.00 0.00 40 941.0
20260502214401 59 133 1.7 2.6 0.00 0.00 0.00 40 940.9
20260502214301 59 138 1.7 2.6 0.00 0.00 0.00 39 940.9
20260502214201 59 142 1.7 2.6 0.00 0.00 0.00 40 941.0
20260502214101 59 152 1.7 2.6 0.00 0.00 0.00 40 941.1
20260502214001 59 175 1.7 2.6 0.00 0.00 0.00 40 941.0
20260502213901 59 128 1.7 2.6 0.00 0.00 0.00 40 941.0
20260502213801 59 158 1.7 3.5 0.00 0.00 0.00 40 941.1
20260502213700 59 181 1.7 3.5 0.00 0.00 0.00 40 941.1
20260502213601 59 136 1.7 2.6 0.00 0.00 0.00 40 941.1
20260502213500 59 149 1.7 2.6 0.00 0.00 0.00 40 941.0
20260502213401 59 160 1.7 2.6 0.00 0.00 0.00 40 941.2
20260502213301 59 153 1.7 2.6 0.00 0.00 0.00 40 941.2
20260502213201 59 153 1.7 2.6 0.00 0.00 0.00 40 941.2
20260502213101 59 157 2.6 2.6 0.00 0.00 0.00 40 941.1
20260502213001 59 156 1.7 2.6 0.00 0.00 0.00 40 941.1
20260502212902 59 141 2.6 2.6 0.00 0.00 0.00 40 941.2
20260502212801 59 149 1.7 2.6 0.00 0.00 0.00 40 941.3
20260502212702 59 143 1.7 2.6 0.00 0.00 0.00 41 941.1
20260502212601 59 163 2.6 2.6 0.00 0.00 0.00 41 941.3
20260502212501 59 177 1.7 2.6 0.00 0.00 0.00 42 941.2
20260502212401 59 159 1.7 2.6 0.00 0.00 0.00 41 941.2
20260502212305 59 157 1.7 2.6 0.00 0.00 0.00 42 941.3
20260502212201 59 140 1.7 2.6 0.00 0.00 0.00 42 941.1
20260502212101 59 148 1.7 2.6 0.00 0.00 0.00 42 941.0
20260502212001 59 136 1.7 2.6 0.00 0.00 0.00 42 941.2
20260502211901 59 141 1.7 2.6 0.00 0.00 0.00 42 941.2
20260502211801 59 137 1.7 2.6 0.00 0.00 0.00 42 941.1
20260502211701 59 143 2.6 2.6 0.00 0.00 0.00 42 941.1
20260502211601 59 156 1.7 2.6 0.00 0.00 0.00 42 941.1
20260502211501 59 147 2.6 2.6 0.00 0.00 0.00 41 941.0
20260502211401 59 156 2.6 3.5 0.00 0.00 0.00 42 941.1
20260502211301 59 135 2.6 3.5 0.00 0.00 0.00 42 940.9
20260502211201 59 149 2.6 3.5 0.00 0.00 0.00 42 941.1
20260502211101 59 150 2.6 3.5 0.00 0.00 0.00 42 941.3
20260502211001 59 155 1.7 3.5 0.00 0.00 0.00 42 941.1
20260502210901 59 158 2.6 3.5 0.00 0.00 0.00 42 941.1
20260502210801 59 144 2.6 2.6 0.00 0.00 0.00 42 941.1
20260502210702 59 139 2.6 2.6 0.00 0.00 0.00 42 941.1
20260502210601 59 139 2.6 2.6 0.00 0.00 0.00 42 941.1
20260502210501 59 143 1.7 2.6 0.00 0.00 0.00 42 941.5
20260502210401 59 146 2.6 2.6 0.00 0.00 0.00 42 941.2
20260502210300 60 151 2.6 2.6 0.00 0.00 0.00 42 941.1
20260502210201 60 166 2.6 3.5 0.00 0.00 0.00 42 941.1
20260502210101 60 138 3.5 3.5 0.00 0.00 0.00 41 941.1
20260502210001 60 153 1.7 2.6 0.00 0.00 0.00 42 941.1
20260502205901 60 134 2.6 2.6 0.00 0.00 0.00 41 941.0
20260502205801 60 143 1.7 2.6 0.00 0.00 0.00 41 941.1
20260502205702 60 144 2.6 3.5 0.00 0.00 0.00 41 941.1
20260502205601 60 131 2.6 3.5 0.00 0.00 0.00 41 941.2
20260502205501 60 132 2.6 3.5 0.00 0.00 0.00 41 941.2
20260502205401 60 141 2.6 3.5 0.00 0.00 0.00 41 941.2
20260502205300 60 153 2.6 3.5 0.00 0.00 0.00 41 941.1
20260502205202 60 160 3.5 3.5 0.00 0.00 0.00 41 941.0
20260502205101 60 151 2.6 2.6 0.00 0.00 0.00 41 941.0
20260502205001 60 149 2.6 3.5 0.00 0.00 0.00 41 941.3
20260502204901 60 156 2.6 3.5 0.00 0.00 0.00 41 941.1
20260502204801 60 142 2.6 3.5 0.00 0.00 0.00 41 941.3
20260502204701 60 168 2.6 3.5 0.00 0.00 0.00 41 941.1
20260502204602 60 166 1.7 3.5 0.00 0.00 0.00 42 941.2
20260502204501 60 153 2.6 3.5 0.00 0.00 0.00 41 941.3
20260502204400 60 157 2.6 3.5 0.00 0.00 0.00 42 941.2
20260502204301 60 154 2.6 3.5 0.00 0.00 0.00 41 941.2
20260502204201 60 147 2.6 3.5 0.00 0.00 0.00 41 941.1
20260502204101 60 153 2.6 2.6 0.00 0.00 0.00 41 941.4
20260502204001 60 138 1.7 2.6 0.00 0.00 0.00 41 941.1
20260502203901 59 134 1.7 2.6 0.00 0.00 0.00 41 941.2
20260502203801 59 143 2.6 2.6 0.00 0.00 0.00 41 941.1
20260502203701 59 134 1.7 2.6 0.00 0.00 0.00 42 941.1
20260502203601 59 168 1.7 2.6 0.00 0.00 0.00 42 941.4
20260502203501 60 140 1.7 2.6 0.00 0.00 0.00 42 941.2
20260502203401 60 132 0.9 1.7 0.00 0.00 0.00 42 941.2
20260502203301 60 131 0.9 1.7 0.00 0.00 0.00 42 941.3
20260502203201 60 126 1.7 2.6 0.00 0.00 0.00 41 941.3
20260502203101 60 139 1.7 2.6 0.00 0.00 0.00 40 941.3
20260502203001 60 139 1.7 2.6 0.00 0.00 0.00 40 941.3
20260502202901 60 142 1.7 2.6 0.00 0.00 0.00 41 941.3
20260502202801 60 151 0.9 2.6 0.00 0.00 0.00 41 941.3
20260502202701 60 164 1.7 2.6 0.00 0.00 0.00 40 941.2
20260502202600 60 138 1.7 2.6 0.00 0.00 0.00 40 941.2
20260502202501 60 148 2.6 2.6 0.00 0.00 0.00 40 941.5
20260502202400 60 141 1.7 2.6 0.00 0.00 0.00 39 941.3
20260502202301 60 125 1.7 2.6 0.00 0.00 0.00 40 941.2
20260502202201 60 153 1.7 2.6 0.00 0.00 0.00 39 941.5
20260502202101 60 147 2.6 2.6 0.00 0.00 0.00 39 941.2
20260502202001 60 131 1.7 2.6 0.00 0.00 0.00 39 941.3
20260502201901 60 138 1.7 1.7 0.00 0.00 0.00 39 941.2
20260502201805 60 146 1.7 1.7 0.00 0.00 0.00 39 941.3
20260502201701 60 128 1.7 1.7 0.00 0.00 0.00 39 941.1
20260502201601 61 136 0.9 1.7 0.00 0.00 0.00 38 941.4
20260502201501 61 155 0.9 1.7 0.00 0.00 0.00 38 941.2
20260502201401 61 147 0.9 1.7 0.00 0.00 0.00 38 941.4
20260502201301 61 119 0.9 1.7 0.00 0.00 0.00 38 941.3
20260502201201 62 136 0.9 1.7 0.00 0.00 0.00 37 941.2
20260502201105 62 124 0.9 1.7 0.00 0.00 0.00 37 941.3
20260502201001 62 134 0.9 1.7 0.00 0.00 0.00 36 941.5
20260502200901 62 145 0.9 1.7 0.00 0.00 0.00 36 941.4
20260502200801 62 136 1.7 1.7 0.00 0.00 0.00 36 941.3
20260502200702 62 141 0.9 1.7 0.00 0.00 0.00 36 941.4
20260502200601 62 156 0.9 1.7 0.00 0.00 0.00 36 941.3
20260502200501 62 141 1.7 1.7 0.00 0.00 0.00 35 941.3
20260502200405 62 160 0.9 1.7 0.00 0.00 0.00 36 941.3
20260502200302 62 150 1.7 1.7 0.00 0.00 0.00 36 941.4
20260502200201 62 148 1.7 1.7 0.00 0.00 0.00 36 941.4
20260502200101 62 141 0.9 1.7 0.00 0.00 0.00 36 941.4
20260502200001 62 149 0.9 1.7 0.00 0.00 0.00 36 941.3
20260502195900 62 155 0.9 1.7 0.00 0.00 0.00 36 941.3
20260502195801 62 167 0.9 1.7 0.00 0.00 0.00 36 941.0
20260502195701 62 152 0.9 1.7 0.00 0.00 0.00 36 941.2
20260502195600 62 156 0.9 1.7 0.00 0.00 0.00 37 941.3
20260502195501 62 134 0.9 1.7 0.00 0.00 0.00 37 941.4
20260502195401 62 152 0.9 1.7 0.00 0.00 0.00 37 941.4
20260502195301 62 159 0.9 1.7 0.00 0.00 0.00 37 941.3
20260502195200 62 123 0.9 1.7 0.00 0.00 0.00 37 941.3
20260502195101 62 124 0.9 1.7 0.00 0.00 0.00 37 941.5
20260502195001 62 121 0.9 0.9 0.00 0.00 0.00 37 941.2
20260502194901 62 130 0.9 0.9 0.00 0.00 0.00 37 941.5
20260502194801 62 135 0.9 0.9 0.00 0.00 0.00 37 941.5
20260502194701 62 141 0.9 0.9 0.00 0.00 0.00 37 941.3
20260502194601 62 138 0.9 1.7 0.00 0.00 0.00 37 941.4
20260502194501 62 138 0.9 1.7 0.00 0.00 0.00 37 941.6
20260502194401 62 143 0.9 0.9 0.00 0.00 0.00 37 941.6
20260502194305 62 151 0.9 0.9 0.00 0.00 0.00 37 941.5
20260502194201 62 134 0.9 0.9 0.00 0.00 0.00 37 941.6
20260502194101 62 138 0.9 1.7 0.00 0.00 0.00 37 941.5
20260502194001 62 147 0.9 1.7 0.00 0.00 0.00 37 941.4
20260502193901 62 145 0.9 0.9 0.00 0.00 0.00 38 941.3
20260502193801 62 134 0.9 0.9 0.00 0.00 0.00 38 941.6
20260502193700 62 131 0.9 0.9 0.00 0.00 0.00 38 941.4
20260502193601 63 129 0.9 0.9 0.00 0.00 0.00 37 941.3
20260502193501 63 123 0.9 0.9 0.00 0.00 0.00 37 941.5
20260502193401 63 127 0.9 0.9 0.00 0.00 0.00 37 941.4
20260502193301 63 124 0.9 0.9 0.00 0.00 0.00 37 941.5
20260502193201 63 124 0.9 0.9 0.00 0.00 0.00 37 941.6
20260502193101 63 127 0.9 0.9 0.00 0.00 0.00 37 941.3
20260502193001 63 127 0.9 0.9 0.00 0.00 0.00 37 941.3
20260502192901 63 123 0.9 0.9 0.00 0.00 0.00 37 941.4
20260502192801 62 118 0.9 0.9 0.00 0.00 0.00 37 941.5
20260502192701 62 118 0.9 0.9 0.00 0.00 0.00 37 941.5
20260502192601 62 113 0.9 0.9 0.00 0.00 0.00 37 941.5
20260502192501 62 111 0.9 0.9 0.00 0.00 0.00 37 941.3
20260502192401 62 121 0.9 0.9 0.00 0.00 0.00 37 941.4
20260502192301 63 119 0.9 0.9 0.00 0.00 0.00 37 941.4
20260502192201 63 118 0.9 0.9 0.00 0.00 0.00 37 941.5
20260502192101 63 117 0.9 0.9 0.00 0.00 0.00 37 941.5
20260502192002 63 121 0.9 0.9 0.00 0.00 0.00 37 941.3
20260502191901 63 118 0.9 0.9 0.00 0.00 0.00 36 941.5
20260502191801 63 124 0.9 0.9 0.00 0.00 0.00 36 941.2
20260502191701 63 114 0.9 0.9 0.00 0.00 0.00 36 941.5
20260502191600 64 121 0.9 0.9 0.00 0.00 0.00 36 941.4
20260502191500 64 120 0.9 0.9 0.00 0.00 0.00 36 941.4
20260502191401 64 124 0.9 0.9 0.00 0.00 0.00 35 941.6
20260502191301 63 123 0.9 0.9 0.00 0.00 0.00 36 941.5
20260502191200 63 115 0.9 0.9 0.00 0.00 0.00 35 941.5
20260502191101 63 112 0.9 0.9 0.00 0.00 0.00 35 941.5
20260502191002 63 89 0.9 0.9 0.00 0.00 0.00 35 941.4
20260502190901 63 103 0.9 0.9 0.00 0.00 0.00 36 941.8
20260502190801 63 107 0.9 0.9 0.00 0.00 0.00 36 941.3
20260502190701 63 104 0.9 0.9 0.00 0.00 0.00 36 941.4
20260502190600 63 107 0.9 0.9 0.00 0.00 0.00 36 941.5
20260502190501 63 111 0.9 0.9 0.00 0.00 0.00 36 941.5
20260502190401 64 106 0.9 0.9 0.00 0.00 0.00 36 941.4
20260502190302 64 106 0.9 0.9 0.00 0.00 0.00 36 941.6
20260502190201 64 100 0.9 0.9 0.00 0.00 0.00 35 941.1
20260502190001 64 102 0.9 0.9 0.00 0.00 0.00 35 941.2
20260502185901 64 103 0.9 0.9 0.00 0.00 0.00 35 941.4
20260502185801 64 106 0.9 0.9 0.00 0.00 0.00 35 941.4
20260502185701 64 103 0.9 0.9 0.00 0.00 0.00 35 941.3
20260502185601 64 87 0.9 0.9 0.00 0.00 0.00 35 941.3
20260502185500 64 94 0.9 0.9 0.00 0.00 0.00 35 941.4
20260502185401 64 103 0.9 0.9 0.00 0.00 0.00 35 941.4
20260502185301 64 92 0.9 0.9 0.00 0.00 0.00 35 941.6
20260502185201 64 90 0.9 0.9 0.00 0.00 0.00 35 941.3
20260502185101 64 93 0.9 0.9 0.00 0.00 0.00 35 941.4
20260502185001 64 87 0.9 0.9 0.00 0.00 0.00 35 941.5
20260502184902 64 84 0.9 0.9 0.00 0.00 0.00 36 941.5
20260502184801 64 82 0.9 0.9 0.00 0.00 0.00 36 941.6
20260502184701 64 82 0.0 0.9 0.00 0.00 0.00 36 941.4
20260502184602 64 81 0.9 0.9 0.00 0.00 0.00 36 941.4
20260502184501 64 72 0.9 0.9 0.00 0.00 0.00 36 941.5
20260502184401 64 83 0.0 0.9 0.00 0.00 0.00 36 941.6
20260502184301 64 77 0.9 0.9 0.00 0.00 0.00 36 941.4
20260502184201 64 80 0.9 0.9 0.00 0.00 0.00 36 941.5
20260502184101 64 66 0.9 0.9 0.00 0.00 0.00 36 941.5
20260502184001 64 70 0.9 0.9 0.00 0.00 0.00 37 941.5
20260502183901 64 73 0.9 0.9 0.00 0.00 0.00 37 941.4
20260502183801 63 70 0.9 0.9 0.00 0.00 0.00 37 941.6
20260502183701 63 77 0.9 0.9 0.00 0.00 0.00 37 941.5
20260502183601 63 71 0.9 0.9 0.00 0.00 0.00 37 941.3
20260502183502 63 66 0.9 0.9 0.00 0.00 0.00 37 941.5
20260502183401 63 66 0.9 0.9 0.00 0.00 0.00 37 941.4
20260502183301 63 63 0.9 0.9 0.00 0.00 0.00 37 941.5
20260502183201 63 63 0.9 0.9 0.00 0.00 0.00 38 941.5
20260502183101 64 59 0.9 0.9 0.00 0.00 0.00 37 941.5
20260502183001 64 61 0.9 0.9 0.00 0.00 0.00 37 941.3
20260502182901 64 59 0.9 0.9 0.00 0.00 0.00 37 941.4
20260502182801 64 59 0.9 0.9 0.00 0.00 0.00 37 941.4
20260502182701 64 60 0.9 0.9 0.00 0.00 0.00 37 941.5
20260502182601 64 53 0.0 0.9 0.00 0.00 0.00 37 941.6
20260502182501 64 70 0.0 0.9 0.00 0.00 0.00 37 941.6
20260502182401 64 77 0.9 0.9 0.00 0.00 0.00 37 941.5
20260502182301 64 51 0.0 0.9 0.00 0.00 0.00 37 941.5
20260502182201 64 68 0.0 0.9 0.00 0.00 0.00 37 941.4
20260502182101 64 68 0.0 0.9 0.00 0.00 0.00 37 941.5
20260502182001 64 66 0.0 0.9 0.00 0.00 0.00 37 941.5
20260502181901 64 67 0.0 0.9 0.00 0.00 0.00 37 941.5
20260502181801 64 66 0.0 0.9 0.00 0.00 0.00 37 941.4
20260502181701 64 65 0.0 0.9 0.00 0.00 0.00 37 941.2
20260502181601 64 71 0.0 0.9 0.00 0.00 0.00 37 941.2
20260502181500 64 66 0.0 0.9 0.00 0.00 0.00 37 941.2
20260502181401 64 68 0.0 0.9 0.00 0.00 0.00 37 941.4
20260502181301 64 85 0.0 0.9 0.00 0.00 0.00 37 941.4
20260502181200 64 75 0.0 0.9 0.00 0.00 0.00 37 941.3
20260502181101 64 69 0.0 0.9 0.00 0.00 0.00 37 941.3
20260502181001 64 78 0.0 0.9 0.00 0.00 0.00 37 941.2
20260502180901 64 80 0.0 0.9 0.00 0.00 0.00 37 941.3
20260502180801 64 68 0.0 0.9 0.00 0.00 0.00 37 941.3
20260502180700 65 66 0.0 0.9 0.00 0.00 0.00 37 941.2
20260502180600 64 72 0.9 0.9 0.00 0.00 0.00 37 941.3
20260502180503 64 74 0.9 0.9 0.00 0.00 0.00 37 941.1
20260502180401 64 74 0.0 0.9 0.00 0.00 0.00 37 941.5
20260502180301 64 72 0.9 0.9 0.00 0.00 0.00 37 941.4
20260502180201 64 69 0.0 0.9 0.00 0.00 0.00 37 941.5
20260502170501 66 54 0.9 0.9 0.00 0.00 0.00 41 941.3
20260502170401 66 51 0.9 1.7 0.00 0.00 0.00 42 941.5
20260502170301 66 57 0.9 1.7 0.00 0.00 0.00 40 941.6
20260502170201 66 56 0.9 1.7 0.00 0.00 0.00 41 941.6
20260502164300 67 80 0.9 0.9 0.00 0.00 0.00 42 941.5
20260502164201 67 91 0.0 0.9 0.00 0.00 0.00 43 941.6
20260502164101 67 117 0.9 0.9 0.00 0.00 0.00 41 941.6
20260502164001 67 73 0.9 1.7 0.00 0.00 0.00 39 941.6
20260502163902 68 127 0.9 1.7 0.00 0.00 0.00 38 941.7
20260502163802 68 106 0.9 1.7 0.00 0.00 0.00 43 941.6
20260502163700 68 80 0.9 1.7 0.00 0.00 0.00 40 941.7
20260502163601 68 91 0.9 0.9 0.00 0.00 0.00 41 941.7
20260502163501 67 52 0.9 0.9 0.00 0.00 0.00 43 941.7
20260502163401 67 94 0.9 0.9 0.00 0.00 0.00 40 941.7
20260502163301 67 63 0.0 0.9 0.00 0.00 0.00 42 941.8
20260502163201 68 59 0.9 0.9 0.00 0.00 0.00 41 941.7
20260502163101 68 59 0.0 0.9 0.00 0.00 0.00 42 941.8
20260502163002 68 111 0.9 0.9 0.00 0.00 0.00 39 941.6
20260502162902 68 82 0.9 0.9 0.00 0.00 0.00 39 941.9
20260502162801 68 99 0.9 0.9 0.00 0.00 0.00 39 941.8
20260502162708 68 99 0.9 0.9 0.00 0.00 0.00 39 941.8
20260502162601 68 110 0.9 0.9 0.00 0.00 0.00 39 941.7
20260502162501 68 102 0.0 0.9 0.00 0.00 0.00 39 941.9
20260502162401 68 72 0.0 0.9 0.00 0.00 0.00 39 941.8
20260502162304 68 55 0.9 0.9 0.00 0.00 0.00 38 941.7
20260502162201 68 57 0.0 0.9 0.00 0.00 0.00 38 941.8
20260502162101 68 60 0.9 0.9 0.00 0.00 0.00 40 941.6
20260502162002 68 66 0.9 0.9 0.00 0.00 0.00 39 941.9
20260502161901 68 114 0.9 0.9 0.00 0.00 0.00 39 942.0
20260502161802 68 115 0.9 0.9 0.00 0.00 0.00 37 941.8
20260502161701 68 129 0.0 0.9 0.00 0.00 0.00 37 941.8
20260502161601 68 90 0.0 0.9 0.00 0.00 0.00 36 942.2
20260502161501 68 155 0.0 0.9 0.00 0.00 0.00 36 941.9
20260502161401 68 152 0.0 0.9 0.00 0.00 0.00 35 942.0
20260502161307 68 181 0.9 0.9 0.00 0.00 0.00 34 941.7
20260502161201 68 155 0.9 0.9 0.00 0.00 0.00 38 942.0
20260502161102 68 125 0.9 0.9 0.00 0.00 0.00 38 942.0
20260502161001 68 174 0.9 0.9 0.00 0.00 0.00 40 941.9
20260502160901 68 163 0.9 0.9 0.00 0.00 0.00 37 942.0
20260502160801 68 161 0.0 0.9 0.00 0.00 0.00 37 942.1
20260502160701 68 131 0.0 0.9 0.00 0.00 0.00 36 942.0
20260502160602 68 110 0.0 0.0 0.00 0.00 0.00 35 941.9
20260502160501 68 110 0.0 0.9 0.00 0.00 0.00 36 942.2
20260502160401 68 139 0.0 0.9 0.00 0.00 0.00 36 942.0
20260502160302 68 89 0.0 0.9 0.00 0.00 0.00 36 942.1
20260502160201 68 82 0.0 0.9 0.00 0.00 0.00 35 942.0
20260502152305 69 186 0.9 0.9 0.00 0.00 0.00 34 942.5
20260502152201 69 254 0.0 0.9 0.00 0.00 0.00 33 942.7
20260502152101 69 281 0.9 1.7 0.00 0.00 0.00 33 942.8
20260502152000 69 247 0.9 1.7 0.00 0.00 0.00 33 942.6
20260502151901 69 260 0.9 0.9 0.00 0.00 0.00 34 942.7
20260502151802 69 247 0.9 0.9 0.00 0.00 0.00 35 942.6
20260502151701 69 214 0.0 0.9 0.00 0.00 0.00 32 942.6
20260502151601 69 223 0.9 0.9 0.00 0.00 0.00 32 942.6
20260502151500 69 276 0.0 0.0 0.00 0.00 0.00 34 942.6
20260502151402 69 168 0.0 0.0 0.00 0.00 0.00 34 942.6
20260502151301 69 168 0.0 0.0 0.00 0.00 0.00 34 942.7
20260502151202 69 166 0.0 0.0 0.00 0.00 0.00 33 942.7
20260502151101 69 166 0.0 0.0 0.00 0.00 0.00 33 942.5
20260502151001 69 167 0.0 1.7 0.00 0.00 0.00 34 942.8
20260502150901 69 191 0.9 1.7 0.00 0.00 0.00 35 942.6
20260502150800 68 195 0.9 0.9 0.00 0.00 0.00 37 942.5
20260502150701 68 186 0.9 0.9 0.00 0.00 0.00 34 942.7
20260502150601 68 176 0.0 1.7 0.00 0.00 0.00 33 942.9
20260502150501 69 188 0.9 1.7 0.00 0.00 0.00 34 942.8
20260502150401 68 204 0.9 1.7 0.00 0.00 0.00 33 942.8
20260502150302 68 233 0.9 1.7 0.00 0.00 0.00 35 942.8
20260502150200 69 212 0.9 1.7 0.00 0.00 0.00 34 943.0
20260502130701 69 184 0.9 2.6 0.00 0.00 0.00 37 943.8
20260502130601 69 189 1.7 2.6 0.00 0.00 0.00 33 943.8
20260502130502 69 209 1.7 2.6 0.00 0.00 0.00 34 943.8
20260502130401 69 202 0.9 1.7 0.00 0.00 0.00 38 943.7
20260502130300 68 168 0.9 0.9 0.00 0.00 0.00 35 944.0
20260502130201 68 200 0.9 0.9 0.00 0.00 0.00 38 943.7
20260502123800 70 180 0.9 1.7 0.00 0.00 0.00 35 944.1
20260502123701 71 215 1.7 1.7 0.00 0.00 0.00 32 943.9
20260502123601 71 186 1.7 1.7 0.00 0.00 0.00 37 944.1
20260502123501 71 177 1.7 1.7 0.00 0.00 0.00 36 944.1
20260502123401 71 238 0.9 0.9 0.00 0.00 0.00 34 944.0
20260502123301 70 239 0.0 0.9 0.00 0.00 0.00 35 944.3
20260502123203 70 303 0.0 0.9 0.00 0.00 0.00 36 944.3
20260502123101 69 299 0.9 0.9 0.00 0.00 0.00 36 944.1
20260502123001 69 300 0.9 0.9 0.00 0.00 0.00 37 944.4
20260502122901 69 329 0.9 0.9 0.00 0.00 0.00 38 944.5
20260502122801 68 221 0.0 0.9 0.00 0.00 0.00 34 944.2
20260502122701 68 235 0.0 0.9 0.00 0.00 0.00 39 944.1
20260502122601 67 280 0.0 1.7 0.00 0.00 0.00 38 944.5
20260502122501 67 291 0.9 1.7 0.00 0.00 0.00 36 944.5
20260502122401 67 291 0.9 1.7 0.00 0.00 0.00 36 944.5
20260502122301 67 334 0.9 1.7 0.00 0.00 0.00 36 944.2
20260502122201 67 334 0.9 0.9 0.00 0.00 0.00 35 944.5
20260502122103 67 272 0.9 1.7 0.00 0.00 0.00 35 944.4
20260502122000 67 242 0.9 3.5 0.00 0.00 0.00 35 944.3
20260502121901 68 192 2.6 2.6 0.00 0.00 0.00 36 944.4
20260502121801 68 208 1.7 2.6 0.00 0.00 0.00 36 944.2
20260502121702 68 217 1.7 2.6 0.00 0.00 0.00 34 944.4
20260502121601 68 223 1.7 2.6 0.00 0.00 0.00 37 944.3
20260502121501 68 191 1.7 2.6 0.00 0.00 0.00 39 944.4
20260502121401 68 304 0.9 0.9 0.00 0.00 0.00 35 944.4
20260502121301 67 214 0.0 0.9 0.00 0.00 0.00 35 944.4
20260502121201 67 198 0.9 0.9 0.00 0.00 0.00 37 944.3
20260502121101 67 191 0.9 1.7 0.00 0.00 0.00 38 944.4
20260502121004 67 215 0.9 3.5 0.00 0.00 0.00 35 944.3
20260502120901 67 173 2.6 3.5 0.00 0.00 0.00 36 944.6
20260502120801 67 178 1.7 1.7 0.00 0.00 0.00 36 944.4
20260502120702 67 200 0.9 1.7 0.00 0.00 0.00 36 944.5
20260502120601 67 208 0.9 2.6 0.00 0.00 0.00 35 944.3
20260502120501 67 215 1.7 2.6 0.00 0.00 0.00 36 944.6
20260502120401 67 200 1.7 2.6 0.00 0.00 0.00 37 944.4
20260502120301 67 196 0.9 2.6 0.00 0.00 0.00 37 944.4
20260502120200 68 203 1.7 2.6 0.00 0.00 0.00 36 944.5
20260502115902 67 189 0.9 1.7 0.00 0.00 0.00 39 944.7
20260502115802 67 104 0.0 0.9 0.00 0.00 0.00 36 944.8
20260502115701 67 334 0.0 1.7 0.00 0.00 0.00 37 944.5
20260502115601 67 104 0.0 2.6 0.00 0.00 0.00 35 944.5
20260502115501 67 171 1.7 2.6 0.00 0.00 0.00 37 944.7
20260502115401 67 166 1.7 2.6 0.00 0.00 0.00 41 944.6
20260502115301 67 155 1.7 2.6 0.00 0.00 0.00 37 944.4
20260502115201 67 180 0.9 2.6 0.00 0.00 0.00 37 944.5
20260502115101 67 217 1.7 2.6 0.00 0.00 0.00 35 944.6
20260502115002 67 208 1.7 2.6 0.00 0.00 0.00 36 944.6
20260502114901 67 227 2.6 2.6 0.00 0.00 0.00 37 944.5
20260502114801 67 220 0.9 3.5 0.00 0.00 0.00 39 944.6
20260502114701 67 184 1.7 2.6 0.00 0.00 0.00 35 944.6
20260502114601 67 201 0.9 2.6 0.00 0.00 0.00 39 944.6
20260502114502 67 183 0.9 2.6 0.00 0.00 0.00 34 944.6
20260502114402 67 152 0.9 2.6 0.00 0.00 0.00 35 944.7
20260502114303 67 223 1.7 2.6 0.00 0.00 0.00 37 944.5
20260502114103 67 204 1.7 2.6 0.00 0.00 0.00 36 944.8
20260502114001 68 213 1.7 2.6 0.00 0.00 0.00 36 944.7
20260502113900 68 216 1.7 2.6 0.00 0.00 0.00 35 944.8
20260502113801 68 200 1.7 1.7 0.00 0.00 0.00 38 944.8
20260502113700 68 300 0.0 0.9 0.00 0.00 0.00 35 944.8
20260502113601 68 203 0.0 0.9 0.00 0.00 0.00 37 944.8
20260502113501 68 322 0.9 1.7 0.00 0.00 0.00 35 944.7
20260502113401 68 228 1.7 2.6 0.00 0.00 0.00 35 945.0
20260502113301 68 204 1.7 2.6 0.00 0.00 0.00 40 944.7
20260502113201 68 211 0.0 0.9 0.00 0.00 0.00 35 944.6
20260502113102 68 122 0.0 0.9 0.00 0.00 0.00 37 944.7
20260502113001 68 79 0.0 0.9 0.00 0.00 0.00 35 944.8
20260502112902 68 51 0.0 0.9 0.00 0.00 0.00 36 944.9
20260502112801 68 147 0.9 0.9 0.00 0.00 0.00 38 944.8
20260502112701 67 193 0.9 0.9 0.00 0.00 0.00 40 945.0
20260502112601 67 241 0.9 0.9 0.00 0.00 0.00 38 945.0
20260502112502 67 283 0.0 0.9 0.00 0.00 0.00 40 944.9
20260502112401 67 195 0.9 1.7 0.00 0.00 0.00 37 944.9
20260502112301 67 169 0.0 2.6 0.00 0.00 0.00 37 945.0
20260502112201 67 169 0.0 2.6 0.00 0.00 0.00 37 945.0
20260502112101 67 58 1.7 2.6 0.00 0.00 0.00 37 944.9
20260502112001 67 227 0.9 1.7 0.00 0.00 0.00 37 944.9
20260502111901 67 159 0.9 1.7 0.00 0.00 0.00 37 944.8
20260502111801 67 179 0.9 1.7 0.00 0.00 0.00 36 944.8
20260502111701 67 127 0.9 1.7 0.00 0.00 0.00 36 945.0
20260502111601 67 206 1.7 1.7 0.00 0.00 0.00 37 945.0
20260502111500 67 216 0.9 1.7 0.00 0.00 0.00 36 944.8
20260502111401 67 69 0.0 0.9 0.00 0.00 0.00 35 945.0
20260502111301 67 49 0.9 1.7 0.00 0.00 0.00 35 944.9
20260502111201 67 347 0.9 2.6 0.00 0.00 0.00 35 944.9
20260502111101 66 341 1.7 2.6 0.00 0.00 0.00 35 945.3
20260502111002 66 337 0.9 1.7 0.00 0.00 0.00 37 945.1
20260502110901 66 201 0.9 1.7 0.00 0.00 0.00 36 945.2
20260502110801 66 193 0.9 0.9 0.00 0.00 0.00 37 945.3
20260502110701 66 165 0.9 0.9 0.00 0.00 0.00 39 945.1
20260502110601 66 219 0.9 1.7 0.00 0.00 0.00 37 945.0
20260502110501 66 209 0.9 1.7 0.00 0.00 0.00 38 945.1
20260502110401 66 194 1.7 2.6 0.00 0.00 0.00 38 945.0
20260502110301 66 214 1.7 2.6 0.00 0.00 0.00 38 945.2
20260502110203 66 185 1.7 2.6 0.00 0.00 0.00 38 945.3
20260502110101 66 200 0.9 1.7 0.00 0.00 0.00 36 945.2
20260502110001 65 261 0.9 0.9 0.00 0.00 0.00 38 945.3
20260502105901 65 270 0.0 0.9 0.00 0.00 0.00 40 945.1
20260502105801 65 107 0.0 0.9 0.00 0.00 0.00 37 945.2
20260502105701 65 229 0.9 1.7 0.00 0.00 0.00 37 945.2
20260502105601 65 224 0.9 2.6 0.00 0.00 0.00 36 945.4
20260502105501 65 188 1.7 2.6 0.00 0.00 0.00 36 945.3
20260502105400 65 201 1.7 2.6 0.00 0.00 0.00 41 945.1
20260502105301 65 218 0.9 1.7 0.00 0.00 0.00 37 945.4
20260502105201 65 282 1.7 2.6 0.00 0.00 0.00 36 945.1
20260502105101 65 244 0.9 2.6 0.00 0.00 0.00 37 945.2
20260502105001 65 219 1.7 2.6 0.00 0.00 0.00 43 945.4
20260502104900 66 223 1.7 2.6 0.00 0.00 0.00 37 945.3
20260502104801 67 194 1.7 2.6 0.00 0.00 0.00 37 945.2
20260502104700 67 188 2.6 2.6 0.00 0.00 0.00 36 945.3
20260502104601 67 222 1.7 1.7 0.00 0.00 0.00 36 945.3
20260502104501 67 212 1.7 1.7 0.00 0.00 0.00 40 945.2
20260502104401 67 88 0.9 0.9 0.00 0.00 0.00 37 945.3
20260502104301 67 84 0.9 4.3 0.00 0.00 0.00 35 945.3
20260502104201 67 203 2.6 4.3 0.00 0.00 0.00 39 945.3
20260502104101 67 55 0.0 1.7 0.00 0.00 0.00 36 945.3
20260502103901 67 96 0.9 0.9 0.00 0.00 0.00 35 945.3
20260502103803 66 134 0.9 0.9 0.00 0.00 0.00 36 945.4
20260502103701 66 89 0.0 0.0 0.00 0.00 0.00 35 945.5
20260502103600 66 66 0.0 1.7 0.00 0.00 0.00 37 945.4
20260502103502 66 170 0.0 1.7 0.00 0.00 0.00 38 945.5
20260502103401 66 128 0.9 1.7 0.00 0.00 0.00 35 945.4
20260502103301 66 89 0.0 0.9 0.00 0.00 0.00 36 945.4
20260502103201 65 128 0.0 0.9 0.00 0.00 0.00 37 945.4
20260502103101 65 87 0.0 0.9 0.00 0.00 0.00 38 945.4
20260502103001 65 53 0.9 0.9 0.00 0.00 0.00 36 945.5
20260502102901 65 105 0.0 1.7 0.00 0.00 0.00 38 945.3
20260502102801 65 106 0.9 1.7 0.00 0.00 0.00 36 945.5
20260502102701 64 149 0.9 0.9 0.00 0.00 0.00 38 945.5
20260502102600 64 151 0.9 0.9 0.00 0.00 0.00 41 945.5
20260502102501 64 182 0.9 1.7 0.00 0.00 0.00 38 945.5
20260502102401 64 192 0.9 1.7 0.00 0.00 0.00 38 945.5
20260502102301 64 180 1.7 1.7 0.00 0.00 0.00 40 945.5
20260502102203 64 180 1.7 1.7 0.00 0.00 0.00 40 945.5
20260502102101 64 202 0.9 2.6 0.00 0.00 0.00 37 945.5
20260502102001 65 140 1.7 2.6 0.00 0.00 0.00 37 945.6
20260502101901 65 139 1.7 2.6 0.00 0.00 0.00 38 945.8
20260502101801 65 166 1.7 2.6 0.00 0.00 0.00 36 945.5
20260502101701 65 176 1.7 2.6 0.00 0.00 0.00 37 945.6
20260502101601 65 164 1.7 2.6 0.00 0.00 0.00 38 945.5
20260502101501 65 207 1.7 2.6 0.00 0.00 0.00 41 945.6
20260502101401 65 196 1.7 2.6 0.00 0.00 0.00 38 945.5
20260502101306 65 125 0.9 1.7 0.00 0.00 0.00 39 945.5
20260502101201 65 195 0.9 1.7 0.00 0.00 0.00 40 945.6
20260502101100 64 154 1.7 1.7 0.00 0.00 0.00 40 945.5
20260502101000 64 185 0.9 2.6 0.00 0.00 0.00 39 945.7
20260502100901 64 184 2.6 2.6 0.00 0.00 0.00 44 945.6
20260502100801 64 218 0.9 1.7 0.00 0.00 0.00 40 945.7
20260502100701 64 226 1.7 2.6 0.00 0.00 0.00 38 945.6
20260502100601 65 217 1.7 2.6 0.00 0.00 0.00 37 945.8
20260502100501 65 190 2.6 2.6 0.00 0.00 0.00 39 945.5
20260502100402 65 190 0.9 1.7 0.00 0.00 0.00 39 945.5
20260502100301 65 218 0.0 0.9 0.00 0.00 0.00 42 945.8
20260502100201 65 188 0.9 1.7 0.00 0.00 0.00 37 945.6
20260502091501 63 124 0.0 0.9 0.00 0.00 0.00 40 946.1
20260502091402 63 144 0.9 1.7 0.00 0.00 0.00 41 946.2
20260502091301 63 139 0.0 1.7 0.00 0.00 0.00 40 946.1
20260502091201 63 184 0.9 1.7 0.00 0.00 0.00 39 946.0
20260502091101 63 160 0.9 1.7 0.00 0.00 0.00 44 946.0
20260502091001 64 126 0.9 2.6 0.00 0.00 0.00 41 946.1
20260502090901 64 131 1.7 2.6 0.00 0.00 0.00 39 946.1
20260502090802 64 136 1.7 2.6 0.00 0.00 0.00 37 946.2
20260502090701 64 119 0.9 1.7 0.00 0.00 0.00 43 945.9
20260502090601 63 95 0.9 0.9 0.00 0.00 0.00 37 946.1
20260502090501 63 69 0.0 0.9 0.00 0.00 0.00 38 946.1
20260502090401 64 107 0.9 1.7 0.00 0.00 0.00 37 946.1
20260502090301 64 125 0.9 1.7 0.00 0.00 0.00 40 946.2
20260502090201 64 215 0.0 1.7 0.00 0.00 0.00 39 946.2
20260502071501 59 222 0.9 0.9 0.00 0.00 0.00 45 946.3
20260502071401 59 237 0.0 1.7 0.00 0.00 0.00 44 946.5
20260502071301 60 229 0.9 1.7 0.00 0.00 0.00 45 946.5
20260502071201 60 197 0.9 1.7 0.00 0.00 0.00 44 946.2
20260502071101 60 164 0.9 1.7 0.00 0.00 0.00 45 946.6
20260502071001 60 189 0.9 1.7 0.00 0.00 0.00 47 946.7
20260502070900 60 220 0.9 0.9 0.00 0.00 0.00 46 946.6
20260502070801 60 212 0.0 1.7 0.00 0.00 0.00 44 946.5
20260502070701 60 218 0.9 1.7 0.00 0.00 0.00 44 946.6
20260502070601 60 188 0.9 1.7 0.00 0.00 0.00 44 946.4
20260502070501 60 177 1.7 1.7 0.00 0.00 0.00 46 946.3
20260502070400 60 177 1.7 1.7 0.00 0.00 0.00 45 946.7
20260502070302 60 160 0.9 1.7 0.00 0.00 0.00 44 946.4
20260502070201 60 177 1.7 1.7 0.00 0.00 0.00 45 946.6
20260502070101 60 194 0.9 1.7 0.00 0.00 0.00 47 946.5
20260502070001 60 166 0.9 1.7 0.00 0.00 0.00 45 946.6
20260502065901 60 171 0.9 1.7 0.00 0.00 0.00 47 946.7
20260502065800 60 210 0.9 1.7 0.00 0.00 0.00 47 946.3
20260502065701 60 215 0.9 1.7 0.00 0.00 0.00 45 946.5
20260502065601 60 200 0.9 1.7 0.00 0.00 0.00 47 946.3
20260502065501 60 143 0.9 1.7 0.00 0.00 0.00 46 946.5
20260502065401 60 164 0.9 1.7 0.00 0.00 0.00 50 946.3
20260502065301 60 229 0.9 0.9 0.00 0.00 0.00 47 946.5
20260502065201 60 182 0.9 0.9 0.00 0.00 0.00 48 946.3
20260502065101 60 180 0.9 0.9 0.00 0.00 0.00 46 946.7
20260502065001 60 206 0.9 0.9 0.00 0.00 0.00 45 946.4
20260502064901 60 201 0.9 0.9 0.00 0.00 0.00 47 946.5
20260502064801 60 159 0.9 0.9 0.00 0.00 0.00 48 946.5
20260502064700 60 130 0.9 0.9 0.00 0.00 0.00 48 946.6
20260502064602 60 139 0.9 0.9 0.00 0.00 0.00 47 946.4
20260502064501 60 98 0.9 0.9 0.00 0.00 0.00 47 946.5
20260502064401 60 132 0.9 1.7 0.00 0.00 0.00 44 946.4
20260502064302 60 142 0.9 1.7 0.00 0.00 0.00 45 946.5
20260502064201 60 127 1.7 1.7 0.00 0.00 0.00 47 946.5
20260502064101 60 114 0.9 0.9 0.00 0.00 0.00 46 946.4
20260502064001 59 126 0.9 0.9 0.00 0.00 0.00 46 946.4
20260502063901 59 103 0.0 1.7 0.00 0.00 0.00 46 946.5
20260502063801 59 112 0.9 1.7 0.00 0.00 0.00 46 946.6
20260502063701 59 106 0.9 1.7 0.00 0.00 0.00 45 946.3
20260502063601 59 118 0.9 1.7 0.00 0.00 0.00 46 946.5
20260502063501 60 125 0.9 1.7 0.00 0.00 0.00 47 946.5
20260502063401 60 122 0.9 1.7 0.00 0.00 0.00 46 946.6
20260502063301 60 134 0.9 1.7 0.00 0.00 0.00 46 946.4
20260502063206 59 141 0.9 0.9 0.00 0.00 0.00 49 946.4
20260502063101 59 84 0.9 0.9 0.00 0.00 0.00 47 946.3
20260502063001 59 119 0.9 0.9 0.00 0.00 0.00 47 946.4
20260502062901 59 116 0.9 0.9 0.00 0.00 0.00 47 946.5
20260502062801 59 133 0.9 1.7 0.00 0.00 0.00 46 946.5
20260502062701 59 115 0.9 1.7 0.00 0.00 0.00 45 946.3
20260502062601 59 122 0.9 0.9 0.00 0.00 0.00 46 946.5
20260502062501 59 114 0.9 1.7 0.00 0.00 0.00 47 946.6
20260502062401 59 116 0.9 1.7 0.00 0.00 0.00 46 946.4
20260502062300 59 113 0.9 0.9 0.00 0.00 0.00 48 946.4
20260502062202 59 85 0.9 1.7 0.00 0.00 0.00 45 946.5
20260502062101 59 86 0.9 1.7 0.00 0.00 0.00 47 946.3
20260502062001 59 119 0.9 0.9 0.00 0.00 0.00 47 946.7
20260502061901 59 100 0.0 0.9 0.00 0.00 0.00 50 946.5
20260502061801 59 100 0.0 0.9 0.00 0.00 0.00 50 946.5
20260502061702 59 116 0.9 0.9 0.00 0.00 0.00 47 946.5
20260502061601 59 135 0.9 0.9 0.00 0.00 0.00 49 946.6
20260502061501 58 103 0.0 0.9 0.00 0.00 0.00 48 946.4
20260502061401 58 111 0.9 0.9 0.00 0.00 0.00 51 946.4
20260502061301 59 132 0.9 0.9 0.00 0.00 0.00 49 946.5
20260502061201 59 113 0.9 0.9 0.00 0.00 0.00 47 946.4
20260502061100 59 122 0.9 0.9 0.00 0.00 0.00 48 946.4
20260502061001 59 142 0.9 0.9 0.00 0.00 0.00 47 946.5
20260502060901 59 131 0.9 0.9 0.00 0.00 0.00 49 946.4
20260502060801 59 120 0.9 0.9 0.00 0.00 0.00 48 946.6
20260502060701 59 128 0.9 0.9 0.00 0.00 0.00 47 946.5
20260502060601 59 138 0.9 0.9 0.00 0.00 0.00 49 946.4
20260502060501 59 139 0.0 0.9 0.00 0.00 0.00 48 946.3
20260502060401 59 97 0.0 0.9 0.00 0.00 0.00 47 946.5
20260502060301 59 119 0.0 0.9 0.00 0.00 0.00 47 946.4
20260502060201 59 154 0.9 0.9 0.00 0.00 0.00 49 946.4
20260502060100 59 140 0.9 0.9 0.00 0.00 0.00 47 946.3
20260502060001 59 144 0.9 0.9 0.00 0.00 0.00 47 946.5
20260502055901 60 130 0.9 0.9 0.00 0.00 0.00 47 946.4
20260502055801 60 117 0.9 0.9 0.00 0.00 0.00 47 946.4
20260502055701 60 118 0.0 0.9 0.00 0.00 0.00 45 946.4
20260502055601 60 143 0.9 0.9 0.00 0.00 0.00 46 946.5
20260502055501 60 94 0.0 0.9 0.00 0.00 0.00 46 946.6
20260502055401 60 99 0.0 0.9 0.00 0.00 0.00 45 946.4
20260502055301 60 85 0.9 0.9 0.00 0.00 0.00 45 946.4
20260502055201 60 85 0.0 0.9 0.00 0.00 0.00 48 946.4
20260502055101 60 143 0.9 0.9 0.00 0.00 0.00 46 946.5
20260502055001 60 111 0.0 0.0 0.00 0.00 0.00 46 946.4
20260502054901 60 105 0.0 0.0 0.00 0.00 0.00 47 946.4
20260502054800 60 121 0.0 0.0 0.00 0.00 0.00 48 946.5
20260502054701 60 94 0.0 0.0 0.00 0.00 0.00 46 946.4
20260502054601 61 134 0.0 0.9 0.00 0.00 0.00 44 946.5
20260502054501 61 129 0.0 0.9 0.00 0.00 0.00 45 946.5
20260502054401 62 106 0.0 0.9 0.00 0.00 0.00 43 946.4
20260502054301 62 106 0.0 0.9 0.00 0.00 0.00 42 946.7
20260502054202 62 102 0.0 0.9 0.00 0.00 0.00 42 946.4
20260502054100 62 100 0.0 0.0 0.00 0.00 0.00 42 946.4
20260502054001 62 114 0.0 0.0 0.00 0.00 0.00 43 946.4
20260502053901 62 205 0.0 0.0 0.00 0.00 0.00 44 946.4
20260502053800 62 205 0.0 0.0 0.00 0.00 0.00 44 946.6
20260502053700 61 205 0.0 0.0 0.00 0.00 0.00 44 946.4
20260502053601 61 205 0.0 0.0 0.00 0.00 0.00 45 946.4
20260502053500 60 205 0.0 0.0 0.00 0.00 0.00 46 946.5
20260502053400 60 205 0.0 0.0 0.00 0.00 0.00 46 946.3
20260502053301 60 205 0.0 0.0 0.00 0.00 0.00 45 946.2
20260502053201 60 205 0.0 0.0 0.00 0.00 0.00 46 946.4
20260502053101 59 205 0.0 0.0 0.00 0.00 0.00 46 946.2
20260502053002 59 205 0.0 0.0 0.00 0.00 0.00 45 946.5
20260502052901 59 205 0.0 0.0 0.00 0.00 0.00 46 946.4
20260502052802 59 205 0.0 0.0 0.00 0.00 0.00 45 946.4
20260502052701 58 205 0.0 0.0 0.00 0.00 0.00 46 946.4
20260502052601 58 205 0.0 0.0 0.00 0.00 0.00 46 946.5
20260502052501 58 205 0.0 0.0 0.00 0.00 0.00 46 946.5
20260502052401 58 205 0.0 0.0 0.00 0.00 0.00 47 946.4
20260502052301 58 206 0.0 0.0 0.00 0.00 0.00 49 946.5
20260502052200 58 206 0.0 0.0 0.00 0.00 0.00 48 946.5
20260502052101 58 206 0.0 0.0 0.00 0.00 0.00 50 946.3
20260502052001 58 206 0.0 0.0 0.00 0.00 0.00 49 946.5
20260502051901 58 206 0.0 0.0 0.00 0.00 0.00 48 946.3
20260502051801 58 206 0.0 0.0 0.00 0.00 0.00 49 946.4
20260502051702 58 206 0.0 0.0 0.00 0.00 0.00 49 946.4
20260502051601 58 206 0.0 0.0 0.00 0.00 0.00 50 946.3
20260502051501 58 206 0.0 0.0 0.00 0.00 0.00 50 946.4
20260502051401 57 206 0.0 0.0 0.00 0.00 0.00 47 946.4
20260502051301 57 206 0.0 0.0 0.00 0.00 0.00 47 946.2
20260502051201 57 206 0.0 0.0 0.00 0.00 0.00 48 946.3
20260502051100 57 206 0.0 0.0 0.00 0.00 0.00 50 946.4
20260502051002 57 206 0.0 0.0 0.00 0.00 0.00 48 946.6
20260502050902 57 206 0.0 0.0 0.00 0.00 0.00 51 946.5
20260502050801 57 206 0.0 0.0 0.00 0.00 0.00 48 946.3
20260502050700 57 205 0.0 0.9 0.00 0.00 0.00 48 946.2
20260502050601 57 205 0.0 0.9 0.00 0.00 0.00 48 946.4
20260502050500 57 205 0.0 0.9 0.00 0.00 0.00 49 946.5
20260502050406 56 206 0.0 0.9 0.00 0.00 0.00 49 946.4
20260502050302 56 206 0.0 0.9 0.00 0.00 0.00 49 946.2
20260502050201 56 206 0.0 0.9 0.00 0.00 0.00 51 946.3
20260502050101 56 206 0.9 0.9 0.00 0.00 0.00 50 946.4
20260502050001 57 206 0.0 0.9 0.00 0.00 0.00 50 946.3
20260502045903 57 206 0.0 0.0 0.00 0.00 0.00 52 946.3
20260502045801 57 206 0.0 0.0 0.00 0.00 0.00 52 946.4
20260502045705 57 207 0.0 0.9 0.00 0.00 0.00 47 946.2
20260502045601 57 207 0.0 0.9 0.00 0.00 0.00 46 946.4
20260502045500 57 212 0.9 0.9 0.00 0.00 0.00 46 946.2
20260502045401 57 89 0.0 0.9 0.00 0.00 0.00 48 946.2
20260502045301 57 88 0.0 0.0 0.00 0.00 0.00 47 946.2
20260502045201 57 89 0.0 0.0 0.00 0.00 0.00 46 946.3
20260502045101 57 89 0.0 0.0 0.00 0.00 0.00 46 946.4
20260502045000 57 89 0.0 0.0 0.00 0.00 0.00 46 946.2
20260502044900 57 88 0.0 0.0 0.00 0.00 0.00 46 946.3
20260502044805 57 89 0.0 0.0 0.00 0.00 0.00 46 946.4
20260502044702 57 89 0.0 0.0 0.00 0.00 0.00 46 946.3
20260502044600 57 88 0.0 0.0 0.00 0.00 0.00 46 946.3
20260502044501 57 88 0.0 0.0 0.00 0.00 0.00 45 946.3
20260502044403 57 88 0.0 0.0 0.00 0.00 0.00 45 946.4
20260502044300 57 88 0.0 0.0 0.00 0.00 0.00 45 946.2
20260502044201 57 88 0.0 0.0 0.00 0.00 0.00 45 946.4
20260502044101 57 88 0.0 0.0 0.00 0.00 0.00 45 946.3
20260502044001 57 88 0.0 0.0 0.00 0.00 0.00 45 946.3
20260502043901 57 88 0.0 0.0 0.00 0.00 0.00 45 946.2
20260502043801 57 88 0.0 0.0 0.00 0.00 0.00 45 946.0
20260502043702 57 88 0.0 0.0 0.00 0.00 0.00 45 946.3
20260502043601 57 88 0.0 0.0 0.00 0.00 0.00 45 946.3
20260502043500 56 88 0.0 0.0 0.00 0.00 0.00 46 946.3
20260502043401 56 88 0.0 0.0 0.00 0.00 0.00 46 946.3
20260502043301 56 88 0.0 0.0 0.00 0.00 0.00 46 946.1
20260502043205 56 88 0.0 0.0 0.00 0.00 0.00 46 946.3
20260502043100 56 88 0.0 0.0 0.00 0.00 0.00 46 946.3
20260502043004 56 88 0.0 0.0 0.00 0.00 0.00 47 946.3
20260502042901 56 88 0.0 0.0 0.00 0.00 0.00 47 946.2
20260502042801 55 88 0.0 0.0 0.00 0.00 0.00 47 946.2
20260502042701 55 88 0.0 0.0 0.00 0.00 0.00 47 946.3
20260502042601 55 88 0.0 0.0 0.00 0.00 0.00 47 946.4
20260502042501 55 88 0.0 0.0 0.00 0.00 0.00 47 946.3
20260502042401 55 88 0.0 0.0 0.00 0.00 0.00 47 946.4
20260502042300 55 89 0.0 0.0 0.00 0.00 0.00 47 946.2
20260502042201 55 88 0.0 0.0 0.00 0.00 0.00 47 946.2
20260502042101 55 88 0.0 0.0 0.00 0.00 0.00 47 946.3
20260502042000 55 88 0.0 0.0 0.00 0.00 0.00 47 946.2
20260502041900 55 88 0.0 0.0 0.00 0.00 0.00 47 946.2
20260502041801 55 88 0.0 0.0 0.00 0.00 0.00 47 946.0
20260502041701 55 88 0.0 0.0 0.00 0.00 0.00 47 946.3
20260502041601 55 88 0.0 0.0 0.00 0.00 0.00 47 946.3
20260502041502 55 88 0.0 0.0 0.00 0.00 0.00 47 946.1
20260502041401 55 88 0.0 0.0 0.00 0.00 0.00 47 946.3
20260502041301 55 88 0.0 0.9 0.00 0.00 0.00 47 946.1
20260502041201 55 88 0.0 0.9 0.00 0.00 0.00 48 946.1
20260502041101 55 88 0.0 0.9 0.00 0.00 0.00 48 946.0
20260502041001 55 88 0.0 0.9 0.00 0.00 0.00 48 946.2
20260502040901 55 88 0.0 0.9 0.00 0.00 0.00 47 946.2
20260502040801 55 88 0.0 0.9 0.00 0.00 0.00 47 946.4
20260502040701 55 88 0.0 0.0 0.00 0.00 0.00 47 946.2
20260502040600 55 88 0.0 0.0 0.00 0.00 0.00 47 946.1
20260502040500 55 88 0.0 0.0 0.00 0.00 0.00 47 946.2
20260502040401 55 88 0.0 0.0 0.00 0.00 0.00 47 946.2
20260502040302 55 88 0.0 0.0 0.00 0.00 0.00 47 946.3
20260502040201 55 88 0.0 0.0 0.00 0.00 0.00 47 946.2
20260502040100 55 88 0.0 0.0 0.00 0.00 0.00 47 946.1
20260502040001 55 88 0.0 0.0 0.00 0.00 0.00 48 946.0
20260502035901 55 88 0.0 0.0 0.00 0.00 0.00 48 946.1
20260502035800 55 87 0.0 0.0 0.00 0.00 0.00 48 946.2
20260502035701 55 87 0.0 0.0 0.00 0.00 0.00 48 946.1
20260502035602 54 88 0.0 0.0 0.00 0.00 0.00 48 946.2
20260502035500 54 88 0.0 0.0 0.00 0.00 0.00 49 946.0
20260502035401 54 88 0.0 0.0 0.00 0.00 0.00 49 946.1
20260502035301 54 88 0.0 0.0 0.00 0.00 0.00 49 946.3
20260502035201 54 88 0.0 0.0 0.00 0.00 0.00 49 946.0
20260502035102 53 88 0.0 0.0 0.00 0.00 0.00 50 946.0
20260502035000 53 88 0.0 0.0 0.00 0.00 0.00 50 946.0
20260502034900 53 88 0.0 0.0 0.00 0.00 0.00 50 946.2
20260502034801 53 88 0.0 0.0 0.00 0.00 0.00 51 946.3
20260502034700 53 88 0.0 0.0 0.00 0.00 0.00 51 946.1
20260502034600 53 88 0.0 0.0 0.00 0.00 0.00 51 946.2
20260502034501 53 88 0.0 0.0 0.00 0.00 0.00 51 946.2
20260502034400 53 88 0.0 0.0 0.00 0.00 0.00 51 946.0
20260502034301 52 88 0.0 0.0 0.00 0.00 0.00 52 946.1
20260502034201 52 88 0.0 0.0 0.00 0.00 0.00 52 946.1
20260502034101 52 88 0.0 0.0 0.00 0.00 0.00 52 946.2
20260502034001 52 88 0.0 0.0 0.00 0.00 0.00 52 946.0
20260502033901 52 88 0.0 0.0 0.00 0.00 0.00 52 946.3
20260502033801 52 88 0.0 0.0 0.00 0.00 0.00 52 945.9
20260502033702 52 88 0.0 0.0 0.00 0.00 0.00 53 946.1
20260502033601 52 88 0.0 0.0 0.00 0.00 0.00 53 946.0
20260502033501 52 88 0.0 0.0 0.00 0.00 0.00 52 946.2
20260502033401 52 88 0.0 0.0 0.00 0.00 0.00 52 946.2
20260502033301 52 88 0.0 0.0 0.00 0.00 0.00 52 946.0
20260502033201 52 88 0.0 0.0 0.00 0.00 0.00 52 946.2
20260502033101 53 88 0.0 0.0 0.00 0.00 0.00 52 946.1
20260502033001 53 88 0.0 0.0 0.00 0.00 0.00 52 946.1
20260502032902 53 88 0.0 0.0 0.00 0.00 0.00 51 946.3
20260502032802 53 88 0.0 0.0 0.00 0.00 0.00 51 946.3
20260502032701 53 88 0.0 0.0 0.00 0.00 0.00 51 946.2
20260502032601 53 88 0.0 0.0 0.00 0.00 0.00 51 946.2
20260502032501 53 88 0.0 0.0 0.00 0.00 0.00 51 946.2
20260502032401 53 88 0.0 0.0 0.00 0.00 0.00 51 946.2
20260502032301 53 88 0.0 0.0 0.00 0.00 0.00 51 946.3
20260502032201 53 88 0.0 0.0 0.00 0.00 0.00 51 946.1
20260502032100 53 88 0.0 0.0 0.00 0.00 0.00 50 946.2
20260502032001 53 88 0.0 0.0 0.00 0.00 0.00 50 946.2
20260502031901 53 88 0.0 0.0 0.00 0.00 0.00 50 946.2
20260502031801 54 88 0.0 0.0 0.00 0.00 0.00 50 946.1
20260502031701 54 88 0.0 0.0 0.00 0.00 0.00 50 946.2
20260502031602 54 88 0.0 0.0 0.00 0.00 0.00 50 946.2
20260502031501 54 88 0.0 0.0 0.00 0.00 0.00 50 946.3
20260502031401 53 88 0.0 0.0 0.00 0.00 0.00 50 946.1
20260502031301 53 88 0.0 0.0 0.00 0.00 0.00 50 946.2
20260502031206 53 88 0.0 0.0 0.00 0.00 0.00 50 946.0
20260502031101 54 88 0.0 0.0 0.00 0.00 0.00 50 946.1
20260502031001 54 88 0.0 0.0 0.00 0.00 0.00 50 946.2
20260502030902 54 88 0.0 0.0 0.00 0.00 0.00 50 946.2
20260502030801 54 88 0.0 0.0 0.00 0.00 0.00 49 946.4
20260502030701 54 88 0.0 0.0 0.00 0.00 0.00 49 946.0
20260502030601 55 88 0.0 0.0 0.00 0.00 0.00 49 946.2
20260502030502 55 88 0.0 0.0 0.00 0.00 0.00 48 946.1
20260502030400 55 88 0.0 0.0 0.00 0.00 0.00 48 946.1
20260502030301 55 88 0.0 0.0 0.00 0.00 0.00 47 946.1
20260502030201 55 88 0.0 0.0 0.00 0.00 0.00 47 946.2
20260502030000 55 88 0.0 0.0 0.00 0.00 0.00 47 946.3
20260502025901 55 88 0.0 0.0 0.00 0.00 0.00 47 946.2
20260502025801 55 88 0.0 0.0 0.00 0.00 0.00 48 946.2
20260502025700 55 88 0.0 0.0 0.00 0.00 0.00 48 946.1
20260502025601 55 88 0.0 0.0 0.00 0.00 0.00 48 946.1
20260502025501 55 88 0.0 0.0 0.00 0.00 0.00 48 946.1
20260502025401 55 88 0.0 0.0 0.00 0.00 0.00 48 946.1
20260502025301 55 88 0.0 0.0 0.00 0.00 0.00 48 946.1
20260502025202 55 88 0.0 0.0 0.00 0.00 0.00 47 946.2
20260502025101 55 88 0.0 0.0 0.00 0.00 0.00 48 946.4
20260502025001 55 88 0.0 0.0 0.00 0.00 0.00 48 946.3
20260502024901 55 88 0.0 0.0 0.00 0.00 0.00 47 946.4
20260502024801 55 88 0.0 0.0 0.00 0.00 0.00 48 946.3
20260502024701 55 88 0.0 0.0 0.00 0.00 0.00 48 946.3
20260502024601 55 88 0.0 0.0 0.00 0.00 0.00 48 946.5
20260502024501 55 88 0.0 0.9 0.00 0.00 0.00 48 946.3
20260502024401 55 89 0.0 0.9 0.00 0.00 0.00 48 946.2
20260502024301 55 88 0.0 0.9 0.00 0.00 0.00 47 946.3
20260502024201 55 88 0.0 0.9 0.00 0.00 0.00 47 946.0
20260502024101 55 89 0.0 0.9 0.00 0.00 0.00 47 946.2
20260502024001 55 88 0.0 0.9 0.00 0.00 0.00 47 946.3
20260502023901 55 88 0.9 0.9 0.00 0.00 0.00 47 946.3
20260502023802 55 88 0.9 0.9 0.00 0.00 0.00 47 946.4
20260502023701 55 89 0.0 0.9 0.00 0.00 0.00 48 946.3
20260502023601 55 88 0.0 0.9 0.00 0.00 0.00 48 946.2
20260502023501 55 88 0.9 0.9 0.00 0.00 0.00 48 946.4
20260502023401 55 88 0.9 0.9 0.00 0.00 0.00 48 946.2
20260502023302 55 88 0.9 0.9 0.00 0.00 0.00 48 946.3
20260502023201 55 88 0.9 0.9 0.00 0.00 0.00 48 946.4
20260502023100 55 88 0.9 0.9 0.00 0.00 0.00 48 946.3
20260502023001 55 89 0.9 0.9 0.00 0.00 0.00 48 946.3
20260502022901 55 88 0.9 0.9 0.00 0.00 0.00 48 946.2
20260502022801 55 88 0.9 0.9 0.00 0.00 0.00 48 946.3
20260502022701 55 88 0.0 0.9 0.00 0.00 0.00 48 946.4
20260502022602 55 88 0.0 0.9 0.00 0.00 0.00 48 946.3
20260502022501 55 88 0.0 0.0 0.00 0.00 0.00 49 946.4
20260502022400 55 88 0.0 0.0 0.00 0.00 0.00 49 946.4
20260502022301 55 88 0.0 0.0 0.00 0.00 0.00 49 946.4
20260502022201 55 88 0.0 0.0 0.00 0.00 0.00 48 946.4
20260502022101 55 88 0.0 0.0 0.00 0.00 0.00 48 946.5
20260502022001 55 88 0.0 0.0 0.00 0.00 0.00 48 946.4
20260502021901 55 88 0.0 0.0 0.00 0.00 0.00 48 946.4
20260502021801 55 88 0.0 0.0 0.00 0.00 0.00 48 946.4
20260502021701 55 88 0.0 0.0 0.00 0.00 0.00 48 946.5
20260502021602 55 88 0.0 0.0 0.00 0.00 0.00 48 946.3
20260502021502 55 88 0.0 0.0 0.00 0.00 0.00 48 946.3
20260502021401 55 88 0.0 0.0 0.00 0.00 0.00 48 946.2
20260502021301 55 88 0.0 0.0 0.00 0.00 0.00 48 946.3
20260502021201 55 88 0.0 0.0 0.00 0.00 0.00 48 946.3
20260502021101 55 88 0.0 0.0 0.00 0.00 0.00 48 946.4
20260502021000 55 88 0.0 0.0 0.00 0.00 0.00 48 946.5
20260502020901 55 88 0.0 0.0 0.00 0.00 0.00 48 946.2
20260502020801 55 88 0.0 0.0 0.00 0.00 0.00 48 946.2
20260502020701 55 88 0.0 0.0 0.00 0.00 0.00 48 946.4
20260502020600 55 88 0.0 0.0 0.00 0.00 0.00 48 946.4
20260502020505 55 88 0.0 0.0 0.00 0.00 0.00 48 946.2
20260502020401 55 88 0.0 0.0 0.00 0.00 0.00 48 946.4
20260502020301 55 88 0.0 0.0 0.00 0.00 0.00 48 946.3
20260502020201 55 88 0.0 0.0 0.00 0.00 0.00 48 946.4
20260502020002 55 88 0.0 0.9 0.00 0.00 0.00 48 946.6
20260502015902 55 88 0.0 0.9 0.00 0.00 0.00 48 946.3
20260502015802 55 88 0.0 0.9 0.00 0.00 0.00 47 946.3
20260502015701 55 88 0.0 0.9 0.00 0.00 0.00 47 946.4
20260502015601 55 88 0.0 0.9 0.00 0.00 0.00 47 946.4
20260502015501 55 88 0.0 0.9 0.00 0.00 0.00 47 946.6
20260502015401 55 88 0.0 0.9 0.00 0.00 0.00 47 946.4
20260502015301 55 88 0.0 0.9 0.00 0.00 0.00 47 946.5
20260502015201 55 88 0.0 0.9 0.00 0.00 0.00 47 946.3
20260502015101 55 88 0.0 0.9 0.00 0.00 0.00 47 946.4
20260502015002 55 88 0.0 0.9 0.00 0.00 0.00 47 946.6
20260502014901 55 88 0.0 0.9 0.00 0.00 0.00 47 946.5
20260502014801 55 88 0.0 0.9 0.00 0.00 0.00 47 946.4
20260502014701 55 88 0.0 0.9 0.00 0.00 0.00 47 946.5
20260502014602 55 88 0.0 0.9 0.00 0.00 0.00 47 946.6
20260502014501 55 88 0.0 0.9 0.00 0.00 0.00 47 946.5
20260502014400 55 88 0.9 0.9 0.00 0.00 0.00 47 946.4
20260502014302 55 88 0.0 0.9 0.00 0.00 0.00 47 946.5
20260502014201 55 88 0.0 0.9 0.00 0.00 0.00 47 946.5
20260502014101 55 88 0.0 0.9 0.00 0.00 0.00 47 946.4
20260502014001 55 89 0.9 0.9 0.00 0.00 0.00 48 946.6
20260502013901 55 89 0.0 0.9 0.00 0.00 0.00 48 946.6
20260502013800 55 89 0.0 0.9 0.00 0.00 0.00 48 946.4
20260502013701 55 89 0.0 0.9 0.00 0.00 0.00 47 946.3
20260502013601 55 92 0.0 0.9 0.00 0.00 0.00 47 946.5
20260502013502 56 94 0.0 0.9 0.00 0.00 0.00 47 946.4
20260502013401 56 96 0.0 0.9 0.00 0.00 0.00 47 946.5
20260502013301 56 92 0.0 0.9 0.00 0.00 0.00 47 946.4
20260502013201 56 93 0.0 0.9 0.00 0.00 0.00 47 946.7
20260502013101 56 94 0.0 0.9 0.00 0.00 0.00 47 946.5
20260502013000 56 101 0.9 0.9 0.00 0.00 0.00 47 946.5
20260502012901 56 100 0.9 0.9 0.00 0.00 0.00 47 946.5
20260502012801 56 87 0.9 0.9 0.00 0.00 0.00 47 946.5
20260502012701 56 101 0.9 0.9 0.00 0.00 0.00 47 946.5
20260502012602 56 105 0.9 0.9 0.00 0.00 0.00 47 946.5
20260502012501 56 102 0.9 0.9 0.00 0.00 0.00 47 946.7
20260502012402 56 105 0.9 0.9 0.00 0.00 0.00 47 946.5
20260502012301 56 103 0.9 0.9 0.00 0.00 0.00 47 946.6
20260502012201 55 104 0.9 0.9 0.00 0.00 0.00 47 946.7
20260502012101 55 102 0.9 0.9 0.00 0.00 0.00 47 946.7
20260502012001 55 102 0.9 0.9 0.00 0.00 0.00 47 946.5
20260502011900 55 102 0.9 0.9 0.00 0.00 0.00 47 946.5
20260502011801 55 105 0.0 0.9 0.00 0.00 0.00 47 946.5
20260502011702 55 102 0.9 0.9 0.00 0.00 0.00 47 946.6
20260502011601 55 103 0.0 0.9 0.00 0.00 0.00 47 946.7
20260502011500 56 90 0.0 0.9 0.00 0.00 0.00 47 946.6
20260502011401 56 96 0.0 0.9 0.00 0.00 0.00 47 946.7
20260502011302 56 96 0.0 0.9 0.00 0.00 0.00 47 946.7
20260502011201 56 94 0.0 0.9 0.00 0.00 0.00 47 946.7
20260502011102 56 92 0.0 0.9 0.00 0.00 0.00 47 946.6
20260502011001 56 88 0.9 0.9 0.00 0.00 0.00 47 946.6
20260502010901 56 88 0.9 0.9 0.00 0.00 0.00 47 946.6
20260502010801 56 87 0.9 0.9 0.00 0.00 0.00 47 946.8
20260502010701 56 88 0.9 0.9 0.00 0.00 0.00 47 946.6
20260502010601 56 88 0.9 0.9 0.00 0.00 0.00 47 946.7
20260502010501 56 87 0.9 0.9 0.00 0.00 0.00 47 946.8
20260502010402 56 91 0.9 0.9 0.00 0.00 0.00 47 946.7
20260502010301 56 91 0.9 0.9 0.00 0.00 0.00 47 946.6
20260502010201 56 91 0.0 0.9 0.00 0.00 0.00 47 946.7
20260502010100 56 91 0.9 0.9 0.00 0.00 0.00 47 946.5
20260502010001 56 90 0.9 0.9 0.00 0.00 0.00 47 946.7
20260502005901 56 86 0.9 0.9 0.00 0.00 0.00 47 946.6
20260502005801 56 86 0.9 0.9 0.00 0.00 0.00 47 946.8
20260502005701 56 86 0.9 0.9 0.00 0.00 0.00 47 946.7
20260502005601 56 86 0.9 0.9 0.00 0.00 0.00 47 946.6
20260502005501 56 96 0.9 0.9 0.00 0.00 0.00 47 946.7
20260502005401 56 88 0.0 0.9 0.00 0.00 0.00 47 946.6
20260502005305 56 84 0.9 0.9 0.00 0.00 0.00 47 946.7
20260502005200 56 88 0.0 0.9 0.00 0.00 0.00 47 946.8
20260502005101 56 88 0.0 0.9 0.00 0.00 0.00 47 946.9
20260502005001 56 85 0.0 0.9 0.00 0.00 0.00 47 946.7
20260502004901 56 85 0.0 0.9 0.00 0.00 0.00 47 946.7
20260502004801 55 85 0.0 0.9 0.00 0.00 0.00 47 946.7
20260502004701 55 85 0.0 0.9 0.00 0.00 0.00 47 946.8
20260502004601 55 85 0.0 0.9 0.00 0.00 0.00 47 946.7
20260502004501 55 85 0.0 0.9 0.00 0.00 0.00 47 946.7
20260502004402 55 85 0.0 0.9 0.00 0.00 0.00 47 946.7
20260502004301 55 85 0.9 0.9 0.00 0.00 0.00 47 946.5
20260502004201 55 85 0.9 0.9 0.00 0.00 0.00 47 946.7
20260502004101 55 84 0.9 0.9 0.00 0.00 0.00 47 946.5
20260502004001 55 84 0.9 0.9 0.00 0.00 0.00 48 946.6
20260502003901 55 85 0.9 0.9 0.00 0.00 0.00 48 946.7
20260502003801 55 79 0.9 0.9 0.00 0.00 0.00 48 946.6
20260502003701 55 74 0.0 0.9 0.00 0.00 0.00 48 946.7
20260502003600 55 71 0.0 0.0 0.00 0.00 0.00 48 946.7
20260502003506 55 71 0.0 0.0 0.00 0.00 0.00 48 947.0
20260502003400 55 71 0.0 0.0 0.00 0.00 0.00 48 946.7
20260502003301 55 71 0.0 0.0 0.00 0.00 0.00 48 946.8
20260502003206 55 71 0.0 0.0 0.00 0.00 0.00 48 946.7
20260502003101 55 71 0.0 0.0 0.00 0.00 0.00 48 946.8
20260502003000 55 71 0.0 0.0 0.00 0.00 0.00 48 946.9
20260502002902 55 71 0.0 0.0 0.00 0.00 0.00 48 946.8
20260502002801 55 71 0.0 0.0 0.00 0.00 0.00 48 946.6
20260502002700 55 71 0.0 0.0 0.00 0.00 0.00 48 946.9
20260502002601 55 71 0.0 0.0 0.00 0.00 0.00 48 946.6
20260502002501 55 71 0.0 0.0 0.00 0.00 0.00 48 946.8
20260502002401 55 71 0.0 0.0 0.00 0.00 0.00 48 946.8
20260502002301 55 71 0.0 0.0 0.00 0.00 0.00 48 946.7
20260502002201 55 71 0.0 0.0 0.00 0.00 0.00 48 946.9
20260502002101 55 71 0.0 0.0 0.00 0.00 0.00 48 946.9
20260502002000 55 71 0.0 0.0 0.00 0.00 0.00 48 946.8
20260502001900 55 71 0.0 0.0 0.00 0.00 0.00 48 947.0
20260502001801 55 71 0.0 0.0 0.00 0.00 0.00 48 946.8
20260502001701 55 71 0.0 0.0 0.00 0.00 0.00 48 946.9
20260502001601 55 71 0.0 0.0 0.00 0.00 0.00 48 946.9
20260502001501 55 71 0.0 0.0 0.00 0.00 0.00 48 947.0
20260502001401 55 71 0.0 0.0 0.00 0.00 0.00 48 947.0
20260502001301 55 71 0.0 0.0 0.00 0.00 0.00 48 947.0
20260502001201 55 71 0.0 0.0 0.00 0.00 0.00 48 947.0
20260502001101 55 71 0.0 0.0 0.00 0.00 0.00 48 947.0
20260502001002 55 71 0.0 0.0 0.00 0.00 0.00 48 946.9
20260502000901 55 71 0.0 0.0 0.00 0.00 0.00 47 946.8
20260502000801 55 71 0.0 0.9 0.00 0.00 0.00 47 946.8
20260502000701 55 71 0.0 0.9 0.00 0.00 0.00 47 946.9
20260502000601 55 70 0.0 0.9 0.00 0.00 0.00 47 946.9
20260502000501 55 70 0.9 0.9 0.00 0.00 0.00 47 946.8
20260502000402 55 70 0.9 0.9 0.00 0.00 0.00 47 946.8
20260502000302 55 66 0.9 0.9 0.00 0.00 0.00 47 946.7
20260502000201 55 66 0.9 0.9 0.00 0.00 0.00 47 946.8
20260502000101 55 64 0.0 0.9 0.00 0.00 0.00 47 946.8
20260502000002 55 62 0.0 0.9 0.00 0.00 0.00 47 946.7
20260501235901 55 59 0.9 0.9 0.00 0.00 0.00 47 946.8
20260501235801 55 60 0.0 0.9 0.00 0.00 0.00 47 946.7
20260501235701 55 59 0.0 0.9 0.00 0.00 0.00 47 946.8
20260501235601 55 59 0.0 0.9 0.00 0.00 0.00 48 946.7
20260501235501 55 68 0.0 0.9 0.00 0.00 0.00 48 947.0
20260501235401 55 68 0.0 0.9 0.00 0.00 0.00 48 946.8
20260501235301 55 68 0.0 0.0 0.00 0.00 0.00 48 947.1
20260501235201 55 68 0.0 0.0 0.00 0.00 0.00 48 946.9
20260501235105 55 68 0.0 0.0 0.00 0.00 0.00 48 946.9
20260501235001 55 68 0.0 0.0 0.00 0.00 0.00 48 947.0
20260501234901 55 68 0.0 0.0 0.00 0.00 0.00 48 946.9
20260501234801 55 68 0.0 0.0 0.00 0.00 0.00 48 946.8
20260501234701 55 68 0.0 0.0 0.00 0.00 0.00 48 946.8
20260501234601 55 65 0.0 0.9 0.00 0.00 0.00 48 946.8
20260501234502 55 65 0.0 0.9 0.00 0.00 0.00 48 946.9
20260501234401 55 65 0.0 0.9 0.00 0.00 0.00 48 946.8
20260501234301 55 65 0.0 0.9 0.00 0.00 0.00 48 946.7
20260501234201 55 65 0.0 0.9 0.00 0.00 0.00 48 946.8
20260501234101 55 65 0.0 0.9 0.00 0.00 0.00 48 947.0
20260501234001 55 65 0.0 0.9 0.00 0.00 0.00 48 946.9
20260501233901 55 65 0.0 0.9 0.00 0.00 0.00 48 946.9
20260501233801 55 65 0.0 0.0 0.00 0.00 0.00 48 946.8
20260501233701 55 65 0.0 0.0 0.00 0.00 0.00 48 946.8
20260501233600 55 65 0.0 0.0 0.00 0.00 0.00 48 947.0
20260501233501 55 65 0.0 0.0 0.00 0.00 0.00 48 947.1
20260501233402 55 65 0.0 0.0 0.00 0.00 0.00 48 946.9
20260501233301 55 65 0.0 0.0 0.00 0.00 0.00 48 947.0
20260501233201 56 65 0.0 0.0 0.00 0.00 0.00 48 946.9
20260501233101 56 65 0.0 0.0 0.00 0.00 0.00 47 947.0
20260501233002 56 65 0.0 0.0 0.00 0.00 0.00 47 947.1
20260501232901 56 65 0.0 0.0 0.00 0.00 0.00 47 946.9
20260501232801 56 65 0.0 0.9 0.00 0.00 0.00 47 946.9
20260501232701 56 65 0.0 0.9 0.00 0.00 0.00 47 946.9
20260501232601 56 65 0.0 0.9 0.00 0.00 0.00 47 946.9
20260501232501 56 64 0.0 0.9 0.00 0.00 0.00 47 947.0
20260501232401 56 65 0.0 0.9 0.00 0.00 0.00 47 947.0
20260501232305 56 65 0.0 0.9 0.00 0.00 0.00 47 946.9
20260501232202 56 64 0.0 0.9 0.00 0.00 0.00 47 946.9
20260501232101 56 64 0.0 0.9 0.00 0.00 0.00 47 946.9
20260501232001 56 64 0.0 0.9 0.00 0.00 0.00 47 947.2
20260501231900 56 68 0.0 0.9 0.00 0.00 0.00 47 947.0
20260501231801 56 69 0.0 0.9 0.00 0.00 0.00 46 947.0
20260501231701 56 65 0.0 0.9 0.00 0.00 0.00 46 947.2
20260501231601 56 69 0.9 0.9 0.00 0.00 0.00 46 947.0
20260501231501 56 80 0.0 0.9 0.00 0.00 0.00 46 947.2
20260501231401 56 65 0.0 0.9 0.00 0.00 0.00 47 947.2
20260501231301 56 71 0.0 0.9 0.00 0.00 0.00 47 947.0
20260501231201 56 68 0.0 0.9 0.00 0.00 0.00 47 947.0
20260501231101 56 68 0.0 0.9 0.00 0.00 0.00 47 947.0
20260501231002 56 68 0.0 0.9 0.00 0.00 0.00 47 947.0
20260501230901 56 65 0.9 0.9 0.00 0.00 0.00 47 947.2
20260501230801 56 76 0.0 0.9 0.00 0.00 0.00 47 947.1
20260501230701 56 74 0.0 0.9 0.00 0.00 0.00 47 947.0
20260501230601 56 72 0.0 0.9 0.00 0.00 0.00 47 947.1
20260501230501 56 78 0.0 0.9 0.00 0.00 0.00 47 947.2
20260501230401 56 59 0.9 0.9 0.00 0.00 0.00 47 947.2
20260501230301 56 72 0.0 0.9 0.00 0.00 0.00 47 947.1
20260501230201 56 65 0.0 0.9 0.00 0.00 0.00 47 947.3
20260501230101 56 71 0.0 0.9 0.00 0.00 0.00 46 947.1
20260501230001 56 65 0.0 0.9 0.00 0.00 0.00 46 947.2
20260501225901 56 73 0.0 0.9 0.00 0.00 0.00 46 947.0
20260501225800 56 66 0.0 0.9 0.00 0.00 0.00 46 947.1
20260501225701 56 66 0.9 0.9 0.00 0.00 0.00 46 947.1
20260501225601 56 66 0.0 0.9 0.00 0.00 0.00 46 947.2
20260501225501 57 66 0.0 0.9 0.00 0.00 0.00 46 947.1
20260501225401 57 66 0.0 0.9 0.00 0.00 0.00 46 947.0
20260501225301 57 65 0.0 0.9 0.00 0.00 0.00 46 947.2
20260501225205 57 70 0.0 0.0 0.00 0.00 0.00 46 947.1
20260501225101 57 64 0.0 0.0 0.00 0.00 0.00 46 947.1
20260501225001 56 64 0.0 0.0 0.00 0.00 0.00 46 947.2
20260501224901 56 64 0.0 0.9 0.00 0.00 0.00 46 947.1
20260501224801 56 64 0.0 0.9 0.00 0.00 0.00 46 947.1
20260501224701 56 65 0.0 0.9 0.00 0.00 0.00 46 947.1
20260501224600 56 74 0.0 0.9 0.00 0.00 0.00 46 946.9
20260501224501 57 68 0.0 0.0 0.00 0.00 0.00 46 947.1
20260501224401 57 68 0.0 0.9 0.00 0.00 0.00 46 947.1
20260501224301 57 68 0.0 0.9 0.00 0.00 0.00 46 947.1
20260501224201 57 66 0.0 0.9 0.00 0.00 0.00 46 947.1
20260501224101 57 66 0.9 0.9 0.00 0.00 0.00 46 947.1
20260501224001 57 82 0.0 0.9 0.00 0.00 0.00 47 947.0
20260501223901 57 66 0.0 0.9 0.00 0.00 0.00 46 947.1
20260501223801 57 69 0.9 0.9 0.00 0.00 0.00 46 946.9
20260501223702 57 68 0.0 0.9 0.00 0.00 0.00 47 947.0
20260501223601 57 66 0.9 0.9 0.00 0.00 0.00 47 947.1
20260501223501 57 64 0.0 0.9 0.00 0.00 0.00 47 947.2
20260501223401 57 71 0.0 0.9 0.00 0.00 0.00 46 947.3
20260501223301 57 70 0.0 0.9 0.00 0.00 0.00 46 947.1
20260501223201 57 70 0.0 0.9 0.00 0.00 0.00 46 947.2
20260501223101 57 70 0.0 0.9 0.00 0.00 0.00 46 947.2
20260501223001 57 70 0.0 0.9 0.00 0.00 0.00 46 947.2
20260501222901 57 70 0.0 0.9 0.00 0.00 0.00 46 947.2
20260501222801 57 70 0.0 0.9 0.00 0.00 0.00 46 947.2
20260501222701 57 70 0.0 0.9 0.00 0.00 0.00 46 947.0
20260501222601 57 70 0.0 0.9 0.00 0.00 0.00 46 947.0
20260501222501 57 70 0.0 0.9 0.00 0.00 0.00 46 947.2
20260501222401 57 70 0.0 0.9 0.00 0.00 0.00 45 947.3
20260501222301 57 70 0.0 0.9 0.00 0.00 0.00 45 947.3
20260501222201 57 71 0.0 0.9 0.00 0.00 0.00 45 947.2
20260501222100 57 71 0.0 0.9 0.00 0.00 0.00 45 947.3
20260501222001 57 69 0.0 0.0 0.00 0.00 0.00 45 947.3
20260501221903 57 69 0.0 0.9 0.00 0.00 0.00 45 947.3
20260501221801 57 69 0.0 0.9 0.00 0.00 0.00 45 947.3
20260501221701 57 69 0.0 0.9 0.00 0.00 0.00 45 947.1
20260501221601 57 69 0.0 0.9 0.00 0.00 0.00 46 947.3
20260501221501 57 69 0.0 0.9 0.00 0.00 0.00 46 947.3
20260501221401 57 69 0.0 0.9 0.00 0.00 0.00 46 947.3
20260501221301 57 69 0.0 0.0 0.00 0.00 0.00 46 947.4
20260501221201 57 69 0.0 0.0 0.00 0.00 0.00 46 947.4
20260501221100 57 69 0.0 0.0 0.00 0.00 0.00 46 947.1
20260501221000 57 69 0.0 0.0 0.00 0.00 0.00 46 947.5
20260501220900 57 69 0.0 0.0 0.00 0.00 0.00 46 947.5
20260501220801 57 69 0.0 0.0 0.00 0.00 0.00 46 947.3
20260501220701 57 69 0.0 0.0 0.00 0.00 0.00 46 947.5
20260501220600 57 69 0.0 0.0 0.00 0.00 0.00 46 947.3
20260501220501 57 69 0.0 0.0 0.00 0.00 0.00 46 947.4
20260501220400 57 69 0.0 0.0 0.00 0.00 0.00 46 947.3
20260501220302 57 69 0.0 0.0 0.00 0.00 0.00 46 947.3
20260501220201 57 69 0.0 0.0 0.00 0.00 0.00 46 947.3
20260501220100 57 69 0.0 0.0 0.00 0.00 0.00 45 947.3
20260501220000 57 69 0.0 0.0 0.00 0.00 0.00 46 947.2
20260501215901 57 69 0.0 0.0 0.00 0.00 0.00 45 947.4
20260501215801 57 69 0.0 0.9 0.00 0.00 0.00 46 947.3
20260501215701 57 73 0.0 0.9 0.00 0.00 0.00 46 947.1
20260501215601 57 73 0.0 0.9 0.00 0.00 0.00 46 947.3
20260501215501 57 66 0.0 0.9 0.00 0.00 0.00 46 947.2
20260501215401 57 66 0.0 0.9 0.00 0.00 0.00 46 947.4
20260501215305 57 66 0.0 0.9 0.00 0.00 0.00 45 947.3
20260501215201 57 74 0.0 0.9 0.00 0.00 0.00 46 947.3
20260501215101 57 63 0.0 0.9 0.00 0.00 0.00 46 947.3
20260501215001 57 70 0.0 0.9 0.00 0.00 0.00 46 947.3
20260501214901 57 59 0.9 0.9 0.00 0.00 0.00 45 947.2